| time (UTC) | temp F | wind direction | speed MPH | gust MPH | rain 1hr in | rain 24hr in | rain mn in | humidity % | barometer mb |
| 20260905115002 | 59 | 319 | 0.0 | 0.0 | 0.00 | 0.00 | 0.00 | 99 | 1015.6 |
| 20260905113503 | 58 | 302 | 0.0 | 0.0 | 0.00 | 0.00 | 0.00 | 99 | 1015.6 |
| 20260905112501 | 58 | 268 | 0.0 | 0.0 | 0.00 | 0.00 | 0.00 | 98 | 1015.2 |
| 20260905111001 | 57 | 291 | 0.0 | 0.0 | 0.00 | 0.00 | 0.00 | 98 | 1014.9 |
| 20260905105502 | 57 | 325 | 0.0 | 0.0 | 0.00 | 0.00 | 0.00 | 98 | 1014.9 |
| 20260905104402 | 58 | 343 | 0.0 | 0.0 | 0.00 | 0.00 | 0.00 | 98 | 1014.9 |
| 20260905102902 | 57 | 262 | 0.0 | 0.0 | 0.00 | 0.00 | 0.00 | 98 | 1014.9 |
| 20260905101402 | 57 | 311 | 0.0 | 0.0 | 0.00 | 0.00 | 0.00 | 97 | 1014.9 |
| 20260905095902 | 58 | 314 | 0.0 | 0.0 | 0.00 | 0.00 | 0.00 | 97 | 1014.9 |
| 20260905094402 | 58 | 316 | 0.0 | 0.0 | 0.00 | 0.00 | 0.00 | 97 | 1014.9 |
| 20260905093402 | 58 | 4 | 0.0 | 0.0 | 0.00 | 0.00 | 0.00 | 97 | 1014.9 |
| 20260905091902 | 59 | 315 | 0.0 | 0.0 | 0.00 | 0.00 | 0.00 | 97 | 1014.6 |
| 20260905090402 | 59 | 306 | 0.0 | 0.0 | 0.00 | 0.00 | 0.00 | 97 | 1014.6 |
| 20260905084902 | 59 | 298 | 0.0 | 0.0 | 0.00 | 0.00 | 0.00 | 96 | 1014.2 |
| 20260905083402 | 59 | 324 | 0.0 | 0.0 | 0.00 | 0.00 | 0.00 | 96 | 1014.2 |
| 20260905081903 | 59 | 312 | 0.0 | 0.0 | 0.00 | 0.00 | 0.00 | 96 | 1014.2 |
| 20260905080402 | 60 | 277 | 0.0 | 0.0 | 0.00 | 0.00 | 0.00 | 96 | 1014.2 |
| 20260905075401 | 60 | 312 | 0.0 | 0.0 | 0.00 | 0.00 | 0.00 | 95 | 1014.2 |
| 20260905073902 | 61 | 301 | 0.0 | 0.0 | 0.00 | 0.00 | 0.00 | 95 | 1014.6 |
| 20260905072502 | 61 | 277 | 0.0 | 0.0 | 0.00 | 0.00 | 0.00 | 95 | 1014.6 |
| 20260905071402 | 61 | 114 | 0.0 | 0.0 | 0.00 | 0.00 | 0.00 | 95 | 1014.6 |
| 20260905070003 | 62 | 230 | 0.0 | 0.0 | 0.00 | 0.00 | 0.00 | 94 | 1014.6 |
| 20260905065002 | 62 | 338 | 0.0 | 0.0 | 0.00 | 0.00 | 0.00 | 94 | 1014.9 |
| 20260905063502 | 62 | 327 | 0.0 | 0.0 | 0.00 | 0.00 | 0.00 | 93 | 1014.6 |
| 20260905062502 | 62 | 251 | 0.0 | 0.0 | 0.00 | 0.00 | 0.00 | 93 | 1014.9 |
| 20260905061402 | 62 | 298 | 0.0 | 0.0 | 0.00 | 0.00 | 0.00 | 93 | 1014.9 |
| 20260905060402 | 63 | 308 | 0.0 | 0.0 | 0.00 | 0.00 | 0.00 | 93 | 1014.9 |
| 20260905055003 | 63 | 313 | 0.0 | 0.0 | 0.00 | 0.00 | 0.00 | 92 | 1014.9 |
| 20260905053502 | 63 | 306 | 0.0 | 0.0 | 0.00 | 0.00 | 0.00 | 92 | 1014.9 |
| 20260905052502 | 63 | 356 | 0.0 | 1.0 | 0.00 | 0.00 | 0.00 | 91 | 1014.9 |
| 20260905051001 | 63 | 337 | 0.0 | 2.0 | 0.00 | 0.00 | 0.00 | 90 | 1014.9 |
| 20260905045503 | 64 | 38 | 0.0 | 0.0 | 0.00 | 0.00 | 0.00 | 89 | 1014.9 |
| 20260905044402 | 64 | 287 | 0.0 | 0.0 | 0.00 | 0.00 | 0.00 | 88 | 1014.9 |
| 20260905043002 | 65 | 267 | 0.0 | 0.0 | 0.00 | 0.00 | 0.00 | 86 | 1014.9 |
| 20260905041502 | 65 | 307 | 0.0 | 0.0 | 0.00 | 0.00 | 0.00 | 84 | 1014.9 |
| 20260905040003 | 67 | 296 | 0.0 | 0.0 | 0.00 | 0.00 | 0.00 | 83 | 1014.9 |
| 20260905034403 | 67 | 317 | 0.0 | 0.0 | 0.00 | 0.00 | 0.01 | 82 | 1015.2 |
| 20260905032901 | 66 | 322 | 0.0 | 0.0 | 0.00 | 0.00 | 0.01 | 83 | 1015.2 |
| 20260905031501 | 67 | 329 | 0.0 | 2.0 | 0.00 | 0.00 | 0.01 | 85 | 1014.9 |
| 20260905025902 | 67 | 305 | 0.0 | 0.0 | 0.00 | 0.00 | 0.01 | 87 | 1014.9 |
| 20260905024502 | 67 | 317 | 0.0 | 0.0 | 0.00 | 0.00 | 0.01 | 87 | 1014.9 |
| 20260905022902 | 68 | 348 | 0.0 | 0.0 | 0.00 | 0.00 | 0.01 | 86 | 1014.9 |
| 20260905021502 | 69 | 309 | 0.0 | 0.0 | 0.00 | 0.00 | 0.01 | 84 | 1014.9 |
| 20260905020402 | 70 | 22 | 0.0 | 0.0 | 0.00 | 0.00 | 0.01 | 83 | 1014.9 |
| 20260905015002 | 71 | 323 | 0.0 | 0.0 | 0.00 | 0.00 | 0.01 | 82 | 1014.9 |
| 20260905013503 | 71 | 333 | 0.0 | 2.0 | 0.00 | 0.00 | 0.01 | 83 | 1014.9 |
| 20260905012003 | 71 | 325 | 0.0 | 1.0 | 0.00 | 0.00 | 0.01 | 83 | 1015.2 |
| 20260905010502 | 71 | 303 | 0.0 | 1.0 | 0.00 | 0.00 | 0.01 | 82 | 1015.2 |
| 20260905005502 | 71 | 302 | 0.0 | 0.0 | 0.00 | 0.00 | 0.01 | 80 | 1015.2 |
| 20260905004001 | 71 | 354 | 0.0 | 0.0 | 0.00 | 0.00 | 0.01 | 77 | 1014.9 |
| 20260905002502 | 72 | 275 | 0.0 | 0.0 | 0.00 | 0.00 | 0.01 | 75 | 1014.9 |
| 20260905000902 | 73 | 296 | 0.0 | 0.0 | 0.00 | 0.00 | 0.01 | 73 | 1014.9 |
| 20260904235501 | 73 | 287 | 0.0 | 0.0 | 0.00 | 0.00 | 0.01 | 70 | 1014.6 |
| 20260904234001 | 74 | 5 | 0.0 | 1.0 | 0.00 | 0.00 | 0.01 | 68 | 1014.6 |
| 20260904232501 | 74 | 35 | 0.0 | 2.0 | 0.00 | 0.00 | 0.01 | 67 | 1014.6 |
| 20260904231001 | 74 | 355 | 3.0 | 3.0 | 0.00 | 0.00 | 0.01 | 66 | 1014.6 |
| 20260904225501 | 75 | 57 | 3.0 | 4.0 | 0.00 | 0.00 | 0.01 | 65 | 1014.2 |
| 20260904223902 | 75 | 35 | 2.0 | 4.0 | 0.00 | 0.00 | 0.01 | 66 | 1014.2 |
| 20260904222901 | 76 | 331 | 0.0 | 2.0 | 0.00 | 0.00 | 0.01 | 66 | 1013.9 |
| 20260904221402 | 75 | 13 | 2.0 | 4.0 | 0.00 | 0.00 | 0.01 | 66 | 1013.9 |
| 20260904220402 | 75 | 42 | 3.0 | 4.0 | 0.00 | 0.00 | 0.01 | 67 | 1013.9 |
| 20260904214902 | 76 | 348 | 0.0 | 3.0 | 0.00 | 0.00 | 0.01 | 66 | 1013.5 |
| 20260904213402 | 76 | 40 | 0.0 | 4.0 | 0.00 | 0.00 | 0.01 | 66 | 1013.5 |
| 20260904211903 | 76 | 59 | 2.0 | 3.0 | 0.00 | 0.00 | 0.01 | 66 | 1013.9 |
| 20260904210402 | 76 | 282 | 0.0 | 0.0 | 0.00 | 0.00 | 0.01 | 67 | 1014.2 |
| 20260904204902 | 76 | 308 | 0.0 | 4.0 | 0.00 | 0.00 | 0.01 | 65 | 1014.2 |
| 20260904203402 | 77 | 30 | 2.0 | 4.0 | 0.00 | 0.00 | 0.01 | 63 | 1014.2 |
| 20260904202001 | 78 | 313 | 2.0 | 3.0 | 0.00 | 0.00 | 0.01 | 61 | 1014.6 |
| 20260904200502 | 80 | 336 | 2.0 | 6.0 | 0.00 | 0.00 | 0.01 | 60 | 1014.6 |
| 20260904195403 | 80 | 39 | 4.0 | 4.0 | 0.00 | 0.00 | 0.01 | 58 | 1014.6 |
| 20260904194001 | 79 | 309 | 2.0 | 6.0 | 0.00 | 0.00 | 0.01 | 60 | 1014.9 |
| 20260904192902 | 80 | 55 | 6.0 | 6.0 | 0.00 | 0.00 | 0.01 | 60 | 1014.9 |
| 20260904191502 | 78 | 27 | 3.0 | 6.0 | 0.00 | 0.00 | 0.01 | 60 | 1015.2 |
| 20260904190402 | 78 | 35 | 6.0 | 8.0 | 0.00 | 0.00 | 0.01 | 59 | 1015.2 |
| 20260904185001 | 79 | 329 | 5.0 | 9.0 | 0.00 | 0.00 | 0.01 | 59 | 1015.6 |
| 20260904183502 | 78 | 229 | 1.0 | 3.0 | 0.00 | 0.00 | 0.01 | 61 | 1015.6 |
| 20260904182402 | 78 | 351 | 1.0 | 7.0 | 0.00 | 0.00 | 0.01 | 61 | 1015.6 |
| 20260904181002 | 79 | 272 | 2.0 | 4.0 | 0.00 | 0.00 | 0.01 | 61 | 1015.6 |
| 20260904175503 | 80 | 257 | 5.0 | 7.0 | 0.00 | 0.00 | 0.01 | 55 | 1015.6 |
| 20260904174502 | 81 | 196 | 3.0 | 9.0 | 0.00 | 0.00 | 0.01 | 52 | 1015.6 |
| 20260904173002 | 80 | 345 | 1.0 | 4.0 | 0.00 | 0.00 | 0.01 | 56 | 1015.9 |
| 20260904171502 | 80 | 302 | 4.0 | 6.0 | 0.00 | 0.00 | 0.01 | 57 | 1015.9 |
| 20260904170002 | 80 | 25 | 3.0 | 7.0 | 0.00 | 0.00 | 0.01 | 57 | 1016.3 |
| 20260904164902 | 80 | 327 | 2.0 | 10.0 | 0.00 | 0.00 | 0.01 | 58 | 1016.3 |
| 20260904163402 | 79 | 318 | 1.0 | 9.0 | 0.00 | 0.00 | 0.01 | 58 | 1016.3 |
| 20260904161902 | 80 | 28 | 1.0 | 6.0 | 0.00 | 0.00 | 0.01 | 54 | 1016.6 |
| 20260904160502 | 79 | 47 | 1.0 | 5.0 | 0.00 | 0.00 | 0.01 | 59 | 1016.6 |
| 20260904155403 | 78 | 293 | 4.0 | 6.0 | 0.00 | 0.00 | 0.01 | 60 | 1016.6 |
| 20260904153902 | 80 | 337 | 6.0 | 6.0 | 0.00 | 0.00 | 0.01 | 60 | 1016.3 |
| 20260904152402 | 77 | 15 | 2.0 | 6.0 | 0.00 | 0.00 | 0.01 | 67 | 1016.3 |
| 20260904151002 | 77 | 302 | 4.0 | 9.0 | 0.00 | 0.00 | 0.01 | 65 | 1016.3 |
| 20260904145402 | 75 | 227 | 0.0 | 2.0 | 0.00 | 0.00 | 0.01 | 68 | 1016.6 |
| 20260904144002 | 74 | 130 | 1.0 | 5.0 | 0.00 | 0.00 | 0.01 | 72 | 1016.3 |
| 20260904142902 | 74 | 255 | 0.0 | 4.0 | 0.00 | 0.00 | 0.01 | 70 | 1015.9 |
| 20260904141503 | 74 | 166 | 0.0 | 2.0 | 0.00 | 0.00 | 0.01 | 74 | 1015.9 |
| 20260904140002 | 70 | 310 | 0.0 | 4.0 | 0.00 | 0.00 | 0.01 | 82 | 1015.9 |
| 20260904134503 | 68 | 335 | 2.0 | 2.0 | 0.00 | 0.00 | 0.01 | 94 | 1016.3 |
| 20260904133003 | 67 | 323 | 0.0 | 0.0 | 0.00 | 0.00 | 0.01 | 99 | 1016.3 |
| 20260904132001 | 67 | 68 | 0.0 | 2.0 | 0.00 | 0.00 | 0.01 | 100 | 1016.3 |
| 20260904130502 | 66 | 333 | 1.0 | 1.0 | 0.00 | 0.00 | 0.01 | 100 | 1016.6 |
| 20260904125402 | 66 | 45 | 0.0 | 0.0 | 0.00 | 0.00 | 0.01 | 100 | 1016.3 |
| 20260904124002 | 65 | 44 | 0.0 | 2.0 | 0.00 | 0.00 | 0.01 | 100 | 1016.6 |
| 20260904122903 | 65 | 323 | 0.0 | 0.0 | 0.00 | 0.00 | 0.01 | 100 | 1016.3 |
| 20260904121502 | 65 | 318 | 0.0 | 0.0 | 0.00 | 0.00 | 0.01 | 100 | 1016.3 |
| 20260904120003 | 64 | 295 | 0.0 | 0.0 | 0.00 | 0.00 | 0.01 | 100 | 1016.3 |